TimeCDT,TemperatureF,Dew PointF,Humidity,Sea Level PressureIn,VisibilityMPH,Wind Direction,Wind SpeedMPH,Gust SpeedMPH,PrecipitationIn,Events,Conditions,WindDirDegrees,DateUTC
12:15 AM,53.6,46.4,77,30.26,10.0,Calm,Calm,-,N/A,,Clear,0,2012-10-05 05:15:00
12:35 AM,53.6,46.4,77,30.26,10.0,Calm,Calm,-,N/A,,Clear,0,2012-10-05 05:35:00
12:55 AM,51.8,46.4,82,30.25,10.0,Calm,Calm,-,N/A,,Clear,0,2012-10-05 05:55:00
1:15 AM,51.8,46.4,82,30.25,10.0,Calm,Calm,-,N/A,,Clear,0,2012-10-05 06:15:00
1:35 AM,51.8,46.4,82,30.24,10.0,Calm,Calm,-,N/A,,Clear,0,2012-10-05 06:35:00
1:55 AM,51.8,46.4,82,30.23,10.0,Calm,Calm,-,N/A,,Clear,0,2012-10-05 06:55:00
2:15 AM,50.0,46.4,87,30.23,10.0,Calm,Calm,-,N/A,,Clear,0,2012-10-05 07:15:00
2:35 AM,51.8,46.4,82,30.23,10.0,Calm,Calm,-,N/A,,Clear,0,2012-10-05 07:35:00
2:55 AM,51.8,46.4,82,30.23,10.0,Calm,Calm,-,N/A,,Clear,0,2012-10-05 07:55:00
3:15 AM,51.8,46.4,82,30.23,10.0,Calm,Calm,-,N/A,,Clear,0,2012-10-05 08:15:00
3:35 AM,50.0,44.6,82,30.22,10.0,Calm,Calm,-,N/A,,Clear,0,2012-10-05 08:35:00
3:55 AM,50.0,44.6,82,30.22,10.0,Calm,Calm,-,N/A,,Clear,0,2012-10-05 08:55:00
4:15 AM,50.0,44.6,82,30.21,10.0,Calm,Calm,-,N/A,,Clear,0,2012-10-05 09:15:00
4:35 AM,48.2,44.6,87,30.21,10.0,Calm,Calm,-,N/A,,Clear,0,2012-10-05 09:35:00
4:55 AM,48.2,44.6,87,30.20,10.0,Calm,Calm,-,N/A,,Clear,0,2012-10-05 09:55:00
5:15 AM,48.2,44.6,87,30.20,10.0,Calm,Calm,-,N/A,,Clear,0,2012-10-05 10:15:00
5:35 AM,48.2,44.6,87,30.20,10.0,Calm,Calm,-,N/A,,Clear,0,2012-10-05 10:35:00
5:55 AM,48.2,44.6,87,30.21,10.0,Calm,Calm,-,N/A,,Clear,0,2012-10-05 10:55:00
6:15 AM,48.2,44.6,87,30.21,10.0,Calm,Calm,-,N/A,,Clear,0,2012-10-05 11:15:00
6:35 AM,48.2,44.6,87,30.21,10.0,Calm,Calm,-,N/A,,Clear,0,2012-10-05 11:35:00
6:55 AM,48.2,44.6,87,30.21,10.0,Calm,Calm,-,N/A,,Clear,0,2012-10-05 11:55:00
7:15 AM,46.4,44.6,93,30.21,10.0,Calm,Calm,-,N/A,,Clear,0,2012-10-05 12:15:00
7:35 AM,48.2,44.6,87,30.22,10.0,Calm,Calm,-,N/A,,Clear,0,2012-10-05 12:35:00
7:55 AM,48.2,44.6,87,30.22,10.0,Calm,Calm,-,N/A,,Clear,0,2012-10-05 12:55:00
8:15 AM,50.0,46.4,87,30.23,10.0,Calm,Calm,-,N/A,,Clear,0,2012-10-05 13:15:00
8:35 AM,51.8,46.4,82,30.23,10.0,Calm,Calm,-,N/A,,Clear,0,2012-10-05 13:35:00
8:55 AM,55.4,50.0,82,30.23,10.0,Calm,Calm,-,N/A,,Clear,0,2012-10-05 13:55:00
9:15 AM,60.8,50.0,68,30.24,10.0,Calm,Calm,-,N/A,,Clear,0,2012-10-05 14:15:00
9:35 AM,62.6,53.6,72,30.24,10.0,Calm,Calm,-,N/A,,Clear,0,2012-10-05 14:35:00
9:55 AM,66.2,50.0,56,30.24,10.0,Calm,Calm,-,N/A,,Clear,0,2012-10-05 14:55:00
10:15 AM,68.0,50.0,52,30.25,10.0,Calm,Calm,-,N/A,,Clear,0,2012-10-05 15:15:00
10:35 AM,69.8,50.0,49,30.25,10.0,Calm,Calm,-,N/A,,Clear,0,2012-10-05 15:35:00
10:55 AM,71.6,50.0,46,30.26,10.0,Calm,Calm,-,N/A,,Clear,0,2012-10-05 15:55:00
11:35 AM,73.4,50.0,44,30.26,10.0,Calm,Calm,-,N/A,,Clear,0,2012-10-05 16:35:00
11:55 AM,75.2,48.2,38,30.26,10.0,Calm,Calm,-,N/A,,Clear,0,2012-10-05 16:55:00
12:15 PM,75.2,48.2,38,30.25,10.0,Calm,Calm,-,N/A,,Clear,0,2012-10-05 17:15:00
12:35 PM,78.8,48.2,34,30.25,10.0,Calm,Calm,-,N/A,,Clear,0,2012-10-05 17:35:00
12:55 PM,78.8,46.4,32,30.24,10.0,Calm,Calm,-,N/A,,Clear,0,2012-10-05 17:55:00
1:35 PM,82.4,42.8,25,30.22,10.0,Calm,Calm,-,N/A,,Clear,0,2012-10-05 18:35:00
1:55 PM,82.4,42.8,25,30.21,10.0,Calm,Calm,-,N/A,,Clear,0,2012-10-05 18:55:00
2:15 PM,82.4,42.8,25,30.20,10.0,Calm,Calm,-,N/A,,Clear,0,2012-10-05 19:15:00
2:35 PM,84.2,42.8,23,30.19,10.0,Calm,Calm,-,N/A,,Clear,0,2012-10-05 19:35:00
2:55 PM,84.2,41.0,22,30.18,10.0,WSW,9.2,17.3,N/A,,Clear,240,2012-10-05 19:55:00
3:15 PM,84.2,39.2,20,30.17,10.0,WSW,5.8,-,N/A,,Clear,240,2012-10-05 20:15:00
3:35 PM,84.2,39.2,20,30.16,10.0,Calm,Calm,-,N/A,,Clear,0,2012-10-05 20:35:00
3:55 PM,84.2,39.2,20,30.15,10.0,SW,11.5,20.7,N/A,,Clear,230,2012-10-05 20:55:00
4:15 PM,86.0,39.2,19,30.15,10.0,WSW,15.0,21.9,N/A,,Clear,240,2012-10-05 21:15:00
4:35 PM,86.0,39.2,19,30.14,10.0,SW,10.4,16.1,N/A,,Clear,230,2012-10-05 21:35:00
4:55 PM,84.2,39.2,20,30.14,10.0,WSW,10.4,-,N/A,,Clear,240,2012-10-05 21:55:00
5:15 PM,84.2,37.4,19,30.13,10.0,SW,15.0,21.9,N/A,,Clear,230,2012-10-05 22:15:00
5:35 PM,84.2,37.4,19,30.13,10.0,South,8.1,-,N/A,,Clear,180,2012-10-05 22:35:00
5:55 PM,84.2,37.4,19,30.13,10.0,WSW,10.4,-,N/A,,Clear,250,2012-10-05 22:55:00
6:15 PM,82.4,37.4,20,30.13,10.0,Calm,Calm,-,N/A,,Clear,0,2012-10-05 23:15:00
6:35 PM,82.4,37.4,20,30.13,10.0,Calm,Calm,-,N/A,,Clear,0,2012-10-05 23:35:00
6:55 PM,82.4,39.2,21,30.13,10.0,Calm,Calm,-,N/A,,Clear,0,2012-10-05 23:55:00
7:15 PM,78.8,41.0,26,30.13,10.0,Calm,Calm,-,N/A,,Clear,0,2012-10-06 00:15:00
7:35 PM,75.2,42.8,31,30.13,10.0,Calm,Calm,-,N/A,,Clear,0,2012-10-06 00:35:00
7:55 PM,73.4,41.0,31,30.13,10.0,Calm,Calm,-,N/A,,Clear,0,2012-10-06 00:55:00
8:15 PM,69.8,44.6,40,30.13,10.0,Calm,Calm,-,N/A,,Clear,0,2012-10-06 01:15:00
8:35 PM,68.0,42.8,40,30.13,10.0,Calm,Calm,-,N/A,,Clear,0,2012-10-06 01:35:00
8:55 PM,68.0,42.8,40,30.14,10.0,Calm,Calm,-,N/A,,Clear,0,2012-10-06 01:55:00
9:15 PM,62.6,46.4,55,30.14,10.0,Calm,Calm,-,N/A,,Clear,0,2012-10-06 02:15:00
9:35 PM,60.8,44.6,55,30.14,10.0,Calm,Calm,-,N/A,,Clear,0,2012-10-06 02:35:00
9:55 PM,60.8,44.6,55,30.14,10.0,Calm,Calm,-,N/A,,Clear,0,2012-10-06 02:55:00
10:35 PM,60.8,44.6,55,30.14,10.0,Calm,Calm,-,N/A,,Clear,0,2012-10-06 03:35:00
10:55 PM,60.8,42.8,52,30.14,10.0,Calm,Calm,-,N/A,,Clear,0,2012-10-06 03:55:00
11:15 PM,59.0,42.8,55,30.14,10.0,Calm,Calm,-,N/A,,Clear,0,2012-10-06 04:15:00
11:35 PM,57.2,44.6,63,30.14,10.0,Calm,Calm,-,N/A,,Clear,0,2012-10-06 04:35:00
11:55 PM,55.4,44.6,67,30.13,10.0,Calm,Calm,-,N/A,,Clear,0,2012-10-06 04:55:00